sat.trackr.live / text

‹ back to catalog

LKW-2

NORAD 43080 · 2017-084A

PAYLOAD ACTIVE UNKNOWN

§ Identity

Operator
Country
PRC
Launch date
2017-12-23
Launch site
JSC
Launch vehicle
Mass (kg)
RCS (m²)

External: N2YO · Heavens-Above · Gunter

§ Orbital elements

Epoch: 2026-09-20T04:26:06.097920Z

Period
94.28 min
Inclination
97.1121°
Eccentricity
0.0000247
Mean motion
15.27404532 rev/d
Perigee alt
483.4 km
Apogee alt
483.7 km
Semi-major
6,861.7 km
B*
1.5997e-4
RAAN
298.5707°
Arg perigee
196.0478°
Mean anomaly
164.0754°
Rev number
48,618

§ Raw data

LKW-21 43080U 17084A   26263.18479280  .00004222  00000+0  15997-3 0  99962 43080  97.1121 298.5707 0000247 196.0478 164.0754 15.27404532486181

JSON: /api/v1/satellites/43080 · /tle

For live sub-satellite position, see the globe view (requires WebGL).

§ Visibility from observer

Set your observer location to see the next 7 days of passes ≥ 10°. The values pass through the URL so the page stays shareable.

No JS? Fill the form by hand. The geolocation button needs JavaScript.

§ Radio — SatNOGS DB

ModeDescriptionDownlinkUplink
FMN S-band telemetry 2.213 GHz

1 transmitter · refreshed weekly from db.satnogs.org